Location: 22
(39.7117°N, 89.5929°W)
Time: 21:08:25
(UTC-06:00)

S-56A Canister/Altair - All Passes

Search period start: 07 February 2023 00:00
Search period end: 17 February 2023 00:00
Orbit: 639 x 2493 km, 38.8° (Epoch: 07 February)

Date Brightness Start Highest point End Pass type
(mag) Time Alt. Az. Time Alt. Az. Time Alt. Az.
07 Feb - 07:29:02 10° SSE 07:29:48 10° SE 07:30:33 10° SE daylight
07 Feb - 09:28:31 10° SW 09:32:49 43° SSE 09:37:15 10° E daylight
07 Feb - 11:31:40 10° W 11:36:12 83° S 11:41:53 10° E daylight
07 Feb - 13:34:53 10° W 13:39:57 59° SSW 13:47:10 10° ESE daylight
07 Feb - 15:38:43 10° W 15:43:56 26° SSW 15:50:58 10° SSE daylight
08 Feb - 08:55:58 10° SW 09:00:17 38° SSE 09:04:29 10° E daylight
08 Feb - 10:59:09 10° W 11:03:36 81° S 11:08:53 10° E daylight
08 Feb - 13:02:26 10° W 13:07:17 63° SSW 13:13:57 10° ESE daylight
08 Feb - 15:06:08 10° W 15:11:08 27° SSW 15:17:53 10° SSE daylight
09 Feb - 08:23:23 10° SW 08:27:45 33° SSE 08:31:46 10° E daylight
09 Feb - 10:26:35 10° W 10:31:02 78° S 10:35:59 10° E daylight
09 Feb - 12:30:00 10° W 12:34:38 66° SSW 12:40:48 10° ESE daylight
09 Feb - 14:33:34 10° W 14:38:22 29° SSW 14:44:50 10° SSE daylight
10 Feb - 07:50:45 10° SW 07:55:12 30° SSE 07:59:07 10° E daylight
10 Feb - 09:53:58 10° WSW 09:58:29 75° S 10:03:11 10° E daylight
10 Feb - 11:57:30 10° W 12:02:02 70° S 12:07:43 10° ESE daylight
10 Feb - 14:01:02 10° W 14:05:39 31° SSW 14:11:49 10° SE daylight
11 Feb - 07:18:04 10° SSW 07:22:38 27° SSE 07:26:29 10° E daylight
11 Feb - 09:21:16 10° WSW 09:25:56 70° S 09:30:28 10° E daylight
11 Feb - 11:25:00 10° W 11:29:26 74° S 11:34:45 10° ESE daylight
11 Feb - 13:28:31 10° W 13:32:59 33° SSW 13:38:49 10° SE daylight
12 Feb - 06:45:22 10° SSW 06:50:02 24° SSE 06:53:52 10° E daylight
12 Feb - 08:48:31 10° WSW 08:53:23 65° SSE 08:57:49 10° E daylight
12 Feb - 10:52:25 10° W 10:56:52 77° S 11:01:51 10° ESE daylight
12 Feb - 12:56:00 10° W 13:00:20 36° SSW 13:05:53 10° SE daylight
12 Feb - 15:02:44 10° SW 15:04:01 11° SSW 15:05:22 10° SSW daylight
13 Feb - 06:12:37 10° SSW 06:17:23 22° SSE 06:21:15 10° ESE visible
13 Feb - 08:15:41 10° WSW 08:20:50 61° SSE 08:25:13 10° E daylight
13 Feb - 10:19:47 10° W 10:24:19 80° S 10:29:03 10° E daylight
13 Feb - 12:23:28 10° W 12:27:43 39° SSW 12:32:59 10° SE daylight
13 Feb - 14:29:20 10° SW 14:31:17 12° SSW 14:33:25 10° SSW daylight
14 Feb - 05:39:51 10° SSW 05:44:42 21° SSE 05:48:37 10° ESE visible
14 Feb - 07:42:47 10° WSW 07:48:15 56° SSE 07:52:41 10° E daylight
14 Feb - 09:47:05 10° W 09:51:44 82° S 09:56:19 10° E daylight
14 Feb - 11:50:54 10° W 11:55:09 42° SSW 12:00:09 10° SE daylight
14 Feb - 13:56:14 10° WSW 13:58:35 13° SSW 14:01:11 10° S daylight
15 Feb - 05:07:03 10° SSW 05:11:59 19° SSE 05:15:57 10° ESE visible
15 Feb - 07:09:48 10° WSW 07:15:39 52° SSE 07:20:11 10° E daylight
15 Feb - 09:14:18 10° W 09:19:11 82° S 09:23:40 10° E daylight
15 Feb - 11:18:18 10° W 11:22:35 47° SSW 11:27:23 10° SE daylight
15 Feb - 13:23:18 10° WSW 13:25:55 14° SSW 13:28:51 10° S daylight
16 Feb - 04:34:16 10° S 04:39:14 18° SSE 04:43:14 10° ESE visible
16 Feb - 06:36:45 10° SW 06:43:01 48° SSE 06:47:42 10° E daylight
16 Feb - 08:41:25 10° W 08:46:37 82° S 08:51:04 10° E daylight
16 Feb - 10:45:40 10° W 10:50:02 52° SSW 10:54:39 10° ESE daylight
16 Feb - 12:50:25 10° WSW 12:53:16 16° SSW 12:56:28 10° S daylight
